TimeEDT,TemperatureF,Dew PointF,Humidity,Sea Level PressureIn,VisibilityMPH,Wind Direction,Wind SpeedMPH,Gust SpeedMPH,PrecipitationIn,Events,Conditions,WindDirDegrees,DateUTC
12:15 AM,60.8,59.0,94,29.95,5.0,Calm,Calm,-,0.00,Rain,Light Rain,0,2013-10-17 04:15:00
12:51 AM,61.0,59.0,93,29.93,4.0,SSW,3.5,-,0.01,Rain,Light Rain,200,2013-10-17 04:51:00
1:51 AM,61.0,59.0,93,29.93,9.0,West,3.5,-,0.00,,Overcast,270,2013-10-17 05:51:00
2:51 AM,61.0,59.0,93,29.92,10.0,Calm,Calm,-,0.00,,Overcast,0,2013-10-17 06:51:00
3:51 AM,60.1,57.9,93,29.91,3.0,NNW,4.6,-,0.02,Rain,Rain,330,2013-10-17 07:51:00
3:58 AM,60.8,57.2,88,29.91,4.0,NNW,6.9,-,0.00,Rain,Light Rain,340,2013-10-17 07:58:00
4:32 AM,59.0,57.2,94,29.91,5.0,Calm,Calm,-,0.01,Rain,Light Rain,0,2013-10-17 08:32:00
4:51 AM,59.0,57.9,96,29.90,4.0,NNW,3.5,-,0.02,Rain,Light Rain,340,2013-10-17 08:51:00
5:06 AM,59.0,57.2,94,29.91,2.5,Calm,Calm,-,0.02,Rain,Light Rain,0,2013-10-17 09:06:00
5:15 AM,59.0,57.2,94,29.90,2.5,NNE,3.5,-,0.02,Rain,Light Rain,30,2013-10-17 09:15:00
5:34 AM,59.0,57.2,94,29.90,4.0,Calm,Calm,-,0.04,Rain,Light Rain,0,2013-10-17 09:34:00
5:49 AM,59.0,57.2,94,29.90,2.5,NNE,3.5,-,0.04,Rain,Heavy Rain,20,2013-10-17 09:49:00
5:51 AM,59.0,57.0,93,29.89,2.0,North,3.5,-,0.05,Rain,Heavy Rain,10,2013-10-17 09:51:00
6:17 AM,57.2,55.4,94,29.90,3.0,NNE,5.8,-,0.06,Rain,Light Rain,30,2013-10-17 10:17:00
6:25 AM,57.2,55.4,94,29.90,2.5,Calm,Calm,-,0.06,Rain,Light Rain,0,2013-10-17 10:25:00
6:32 AM,57.2,55.4,94,29.90,4.0,NNE,4.6,-,0.07,Rain,Light Rain,30,2013-10-17 10:32:00
6:51 AM,57.9,55.9,93,29.89,8.0,NE,3.5,-,0.07,,Overcast,50,2013-10-17 10:51:00
7:35 AM,57.2,55.4,94,29.90,2.5,NNW,5.8,-,0.00,Rain,Light Rain,340,2013-10-17 11:35:00
7:49 AM,55.4,55.4,100,29.89,1.5,ENE,6.9,-,0.01,Rain,Light Rain,60,2013-10-17 11:49:00
7:51 AM,55.9,55.0,97,29.88,1.5,NE,5.8,-,0.01,Rain,Light Rain,50,2013-10-17 11:51:00
7:58 AM,55.4,53.6,94,29.90,1.8,NE,5.8,-,0.00,Rain,Light Rain,40,2013-10-17 11:58:00
8:51 AM,55.0,54.0,96,29.89,1.5,North,3.5,-,0.02,Rain,Light Rain,360,2013-10-17 12:51:00
9:51 AM,54.0,53.1,97,29.88,1.5,North,3.5,-,0.01,,Overcast,350,2013-10-17 13:51:00
10:51 AM,55.0,53.1,93,29.86,1.5,NE,4.6,-,0.00,Rain,Light Rain,40,2013-10-17 14:51:00
11:51 AM,55.9,54.0,93,29.85,1.5,Calm,Calm,-,0.01,Rain,Light Rain,0,2013-10-17 15:51:00
12:51 PM,55.0,54.0,96,29.84,1.2,WNW,5.8,-,0.05,Rain,Rain,300,2013-10-17 16:51:00
1:21 PM,55.4,53.6,94,29.86,4.0,WNW,9.2,-,0.05,Rain,Light Rain,300,2013-10-17 17:21:00
1:51 PM,54.0,52.0,93,29.84,4.0,WNW,8.1,-,0.05,,Overcast,300,2013-10-17 17:51:00
2:48 PM,53.6,51.8,94,29.88,1.0,NW,10.4,20.7,0.03,Rain,Rain,310,2013-10-17 18:48:00
2:51 PM,53.1,51.1,93,29.86,1.0,Variable,4.6,-,0.05,Rain,Light Rain,0,2013-10-17 18:51:00
3:00 PM,53.6,51.8,94,29.86,4.0,WNW,3.5,-,0.03,Rain,Light Rain,300,2013-10-17 19:00:00
3:08 PM,53.6,51.8,94,29.87,4.0,WNW,3.5,-,0.03,Rain,Rain,290,2013-10-17 19:08:00
3:51 PM,53.1,51.1,93,29.87,4.0,West,3.5,-,0.05,,Overcast,260,2013-10-17 19:51:00
3:58 PM,53.6,51.8,94,29.88,5.0,West,3.5,-,0.00,Rain,Light Rain,270,2013-10-17 19:58:00
4:14 PM,53.6,51.8,94,29.88,5.0,West,6.9,-,0.00,,Overcast,260,2013-10-17 20:14:00
4:51 PM,54.0,50.0,86,29.89,7.0,West,8.1,-,0.00,,Overcast,270,2013-10-17 20:51:00
5:36 PM,53.6,50.0,88,29.91,7.0,WSW,5.8,-,N/A,,Overcast,250,2013-10-17 21:36:00
5:51 PM,54.0,51.1,90,29.91,10.0,West,4.6,-,N/A,,Overcast,260,2013-10-17 21:51:00
6:51 PM,54.0,50.0,86,29.94,10.0,SW,5.8,-,N/A,,Overcast,230,2013-10-17 22:51:00
7:51 PM,54.0,50.0,86,29.96,10.0,SSW,3.5,-,N/A,,Overcast,200,2013-10-17 23:51:00
8:51 PM,53.1,50.0,89,29.98,10.0,SW,3.5,-,N/A,,Overcast,230,2013-10-18 00:51:00
9:51 PM,53.1,50.0,89,29.99,10.0,Calm,Calm,-,N/A,,Mostly Cloudy,0,2013-10-18 01:51:00
10:51 PM,50.0,48.9,96,30.00,10.0,Calm,Calm,-,N/A,,Scattered Clouds,0,2013-10-18 02:51:00
11:51 PM,52.0,50.0,93,30.00,10.0,SW,3.5,-,N/A,,Overcast,220,2013-10-18 03:51:00